Spokane, WA
on Wednesday, January 23, 2013

Wednesday
Previous Day Next Day
Daily Summary
 ActualAverageRecord
Temperature
Mean Temperature °F / °C 31°F / -1°C  
Max Temperature 34°F / 1°C 36°F / 2°C 53°F / 11°C (1919)
Min Temperature 20°F / -7°C 26°F / -3°C -19°F / -28°C (1969)
Degree Days
Heating Degree Days 38 34  
Month to date heating degree days 979 827  
Since 1 July heating degree days 3404 3661  
Cooling Degree Days 0 0  
Month to date cooling degree days 0 0  
Year to date cooling degree days 0 0  
Moisture
Dew Point 24°F / -4°C   
Average Humidity 88    
Maximum Humidity 92    
Minimum Humidity 84    
Precipitation
Precipitation 0.12 in / 3.05 cm 0.05 in / 1.27 cm 1.36 in / 3.45 cm (1882)
Month to date precipitation 1.17 1.39  
Year to date precipitation 1.17 1.39  
Snow
Snow 0.50 in / 1.27 cm 0.30 in / 0.76 cm 7.40 in / 18.80 cm (1965)
Month to date snowfall 12.3 9.2  
Since 1 July snowfall 36.3 31.3  
Snow Depth 2.00 in / 5.08 cm   
Wind
Wind Speed 6 mph / 9 km/h   
Max Wind Speed 25 mph / 40 km/h   
Max Gust Speed 29 mph / 47 km/h   
Visibility 5 miles / 7 kilometers   
Events Rain , Snow   

Key: T is trace of precipitation, MM is missing value
Source: NWS Daily Summary
Time(PST)TemperatureDew PointHumidity Pressure Visibility Wind DirectionWind SpeedGust SpeedPrecipitationEvents Conditions
12:53 AM 21.0°F / -6.1°C 18.0°F / -7.8°C 88% 30.19 in / 1022.1 hPa 5.0 miles / 8.0 kilometers NE 3.5 mph / 5.6 km/h - N/A   Overcast
1:18 AM 21.2°F / -6.0°C 17.6°F / -8.0°C 86% 30.08 in / 1018.5 hPa 3.0 miles / 4.8 kilometers NE 3.5 mph / 5.6 km/h - N/A   Overcast
1:53 AM 21.0°F / -6.1°C 18.0°F / -7.8°C 88% 30.19 in / 1022.3 hPa 3.0 miles / 4.8 kilometers NNE 4.6 mph / 7.4 km/h - N/A   Overcast
2:53 AM 21.0°F / -6.1°C 18.0°F / -7.8°C 88% 30.17 in / 1021.5 hPa 5.0 miles / 8.0 kilometers NE 5.8 mph / 9.3 km/h - N/A   Overcast
3:53 AM 21.0°F / -6.1°C 19.0°F / -7.2°C 92% 30.18 in / 1021.8 hPa 5.0 miles / 8.0 kilometers Calm Calm - N/A   Overcast
4:53 AM 21.9°F / -5.6°C 19.0°F / -7.2°C 89% 30.14 in / 1020.7 hPa 6.0 miles / 9.7 kilometers NNE 3.5 mph / 5.6 km/h - N/A   Overcast
5:53 AM 21.9°F / -5.6°C 19.0°F / -7.2°C 89% 30.12 in / 1020.0 hPa 7.0 miles / 11.3 kilometers NNE 5.8 mph / 9.3 km/h - N/A   Overcast
6:53 AM 19.9°F / -6.7°C 17.1°F / -8.3°C 89% 30.12 in / 1019.8 hPa 9.0 miles / 14.5 kilometers NNE 5.8 mph / 9.3 km/h - N/A   Overcast
7:53 AM 21.0°F / -6.1°C 19.0°F / -7.2°C 92% 30.11 in / 1019.6 hPa 9.0 miles / 14.5 kilometers NNE 5.8 mph / 9.3 km/h - N/A   Overcast
8:53 AM 21.0°F / -6.1°C 18.0°F / -7.8°C 88% 30.10 in / 1019.3 hPa 10.0 miles / 16.1 kilometers NE 4.6 mph / 7.4 km/h - N/A   Overcast
9:53 AM 24.1°F / -4.4°C 21.0°F / -6.1°C 88% 30.10 in / 1019.1 hPa 10.0 miles / 16.1 kilometers NNE 3.5 mph / 5.6 km/h - N/A   Overcast
10:53 AM 27.0°F / -2.8°C 23.0°F / -5.0°C 85% 30.08 in / 1018.5 hPa 10.0 miles / 16.1 kilometers NE 6.9 mph / 11.1 km/h - N/A   Overcast
11:53 AM 28.0°F / -2.2°C 24.1°F / -4.4°C 85% 30.05 in / 1017.6 hPa 10.0 miles / 16.1 kilometers ENE 5.8 mph / 9.3 km/h - N/A   Overcast
12:53 PM 28.9°F / -1.7°C 25.0°F / -3.9°C 85% 30.03 in / 1016.7 hPa 10.0 miles / 16.1 kilometers NNE 5.8 mph / 9.3 km/h - N/A   Overcast
1:53 PM 28.9°F / -1.7°C 25.0°F / -3.9°C 85% 30.01 in / 1016.1 hPa 10.0 miles / 16.1 kilometers Calm Calm - N/A   Overcast
2:53 PM 28.9°F / -1.7°C 25.0°F / -3.9°C 85% 30.02 in / 1016.5 hPa 10.0 miles / 16.1 kilometers Calm Calm - N/A   Overcast
2:58 PM 28.4°F / -2.0°C 24.8°F / -4.0°C 86% 29.93 in / 1013.4 hPa 2.0 miles / 3.2 kilometers Calm Calm - 0.00 in / 0.0 cm Snow Light Snow
3:34 PM 28.4°F / -2.0°C 26.6°F / -3.0°C 93% 29.92 in / 1013.1 hPa 2.0 miles / 3.2 kilometers NE 6.9 mph / 11.1 km/h - 0.03 in / 0.8 cm Rain Light Freezing Rain
3:53 PM 28.9°F / -1.7°C 27.0°F / -2.8°C 92% 30.03 in / 1016.8 hPa 2.0 miles / 3.2 kilometers Calm Calm - 0.04 in / 1.0 cm Rain Light Freezing Rain
4:03 PM 28.4°F / -2.0°C 26.6°F / -3.0°C 93% 29.95 in / 1014.1 hPa 1.0 miles / 1.6 kilometers Calm Calm - 0.00 in / 0.0 cm Snow Light Snow
4:18 PM 28.4°F / -2.0°C 26.6°F / -3.0°C 93% 29.94 in / 1013.8 hPa 0.5 miles / 0.8 kilometers ENE 4.6 mph / 7.4 km/h - 0.01 in / 0.3 cm Snow Light Snow
4:47 PM 28.4°F / -2.0°C 26.6°F / -3.0°C 93% 29.92 in / 1013.1 hPa 0.5 miles / 0.8 kilometers NE 9.2 mph / 14.8 km/h - 0.04 in / 1.0 cm Rain Light Freezing Rain
4:53 PM 28.9°F / -1.7°C 27.0°F / -2.8°C 92% 30.00 in / 1015.7 hPa 0.5 miles / 0.8 kilometers NE 9.2 mph / 14.8 km/h - 0.05 in / 1.3 cm Rain Light Freezing Rain
5:08 PM 28.4°F / -2.0°C 26.6°F / -3.0°C 93% 29.92 in / 1013.1 hPa 0.5 miles / 0.8 kilometers ENE 4.6 mph / 7.4 km/h - 0.00 in / 0.0 cm Rain Light Freezing Rain
5:42 PM 30.2°F / -1.0°C 28.4°F / -2.0°C 93% 29.91 in / 1012.8 hPa 0.5 miles / 0.8 kilometers ENE 4.6 mph / 7.4 km/h - 0.01 in / 0.3 cm Rain Light Freezing Rain
5:53 PM 30.0°F / -1.1°C 28.0°F / -2.2°C 92% 29.99 in / 1015.4 hPa 0.5 miles / 0.8 kilometers NE 3.5 mph / 5.6 km/h - 0.01 in / 0.3 cm Rain Light Freezing Rain
6:31 PM 30.2°F / -1.0°C 28.4°F / -2.0°C 93% 29.88 in / 1011.7 hPa 0.5 miles / 0.8 kilometers ENE 6.9 mph / 11.1 km/h - 0.02 in / 0.5 cm Rain , Snow Light Freezing Rain
6:41 PM 30.2°F / -1.0°C 28.4°F / -2.0°C 93% 29.88 in / 1011.7 hPa 2.0 miles / 3.2 kilometers East 6.9 mph / 11.1 km/h - 0.02 in / 0.5 cm   Overcast
6:53 PM 30.9°F / -0.6°C 30.0°F / -1.1°C 96% 29.97 in / 1014.7 hPa 2.0 miles / 3.2 kilometers East 4.6 mph / 7.4 km/h - 0.02 in / 0.5 cm   Overcast
7:38 PM 30.2°F / -1.0°C 30.2°F / -1.0°C 100% 29.89 in / 1012.1 hPa 2.0 miles / 3.2 kilometers NW 3.5 mph / 5.6 km/h - 0.00 in / 0.0 cm Rain Light Freezing Rain
7:53 PM 30.9°F / -0.6°C 30.9°F / -0.6°C 100% 29.98 in / 1015.1 hPa 2.0 miles / 3.2 kilometers Calm Calm - 0.00 in / 0.0 cm Rain Light Freezing Rain
8:09 PM 30.2°F / -1.0°C 30.2°F / -1.0°C 100% 29.89 in / 1012.1 hPa 4.0 miles / 6.4 kilometers SE 5.8 mph / 9.3 km/h - 0.00 in / 0.0 cm Rain Light Freezing Rain
8:24 PM 33.8°F / 1.0°C 32.0°F / 0.0°C 93% 29.90 in / 1012.4 hPa 5.0 miles / 8.0 kilometers SSW 5.8 mph / 9.3 km/h - 0.00 in / 0.0 cm Rain Light Rain
8:53 PM 33.1°F / 0.6°C 30.0°F / -1.1°C 89% 29.99 in / 1015.5 hPa 5.0 miles / 8.0 kilometers SSW 16.1 mph / 25.9 km/h 23.0 mph / 37.0 km/h 0.00 in / 0.0 cm Snow Light Snow
9:53 PM 27.0°F / -2.8°C 24.1°F / -4.4°C 89% 30.03 in / 1016.9 hPa 4.0 miles / 6.4 kilometers SSW 13.8 mph / 22.2 km/h 24.2 mph / 38.9 km/h 0.00 in / 0.0 cm   Overcast
10:40 PM 24.8°F / -4.0°C 21.2°F / -6.0°C 86% 29.99 in / 1015.5 hPa 2.0 miles / 3.2 kilometers SSW 17.3 mph / 27.8 km/h - 0.00 in / 0.0 cm Snow Light Snow
10:53 PM 24.1°F / -4.4°C 21.0°F / -6.1°C 88% 30.08 in / 1018.5 hPa 4.0 miles / 6.4 kilometers SSW 15.0 mph / 24.1 km/h - 0.00 in / 0.0 cm   Overcast
11:31 PM 23.0°F / -5.0°C 21.2°F / -6.0°C 93% 30.02 in / 1016.5 hPa 1.0 miles / 1.6 kilometers SSW 16.1 mph / 25.9 km/h - N/A   Overcast
11:53 PM 23.0°F / -5.0°C 21.0°F / -6.1°C 92% 30.12 in / 1019.7 hPa 4.0 miles / 6.4 kilometers SSW 9.2 mph / 14.8 km/h - N/A   Overcast
Moon Phase
Jan. 23 Jan. 26 Feb. 03 Feb. 10 Feb. 17
Sunrise:07:26 AM (PST) Moon Rise:01:48 PM (PST)1/23
Sunset:04:37 PM (PST) Moon Set:04:45 AM (PST)1/23

Copyright © 2014 The Weather Underground, Inc.